Temperature
14 15 15 15 15 15 14 14 14 15 15 15 15 15 15 14 15 15 15 15 15 15 15 15 15 15 15 15 15 15 15 15 15 15 15 15 15 15 15 15 16 16 15
14 14 14 15 15 15 14 14 14 15 15 15 15 15 14 14 14 14 15 15 15 15 15 15 15 15 15 15 15 15 15 15 15 15 15 15 15 15 15 15 15 15 15
13 14 14 14 14 15 15 14 14 14 14 14 14 14 14 14 14 14 14 15 15 15 15 15 15 15 15 15 15 15 15 15 14 14 14 14 14 14 15 15 15 15 15
13 14 14 14 14 14 14 14 14 14 14 14 14 14 14 14 14 14 14 14 14 14 14 14 14 14 14 15 15 15 14 14 14 14 14 14 14 14 14 14 14 14 15
13 13 13 14 14 14 14 14 14 14 14 14 14 14 14 14 14 14 14 14 14 14 14 14 14 14 14 14 14 14 14 14 14 14 14 14 14 14 14 14 14 14 14
13 13 13 13 13 13 13 14 14 14 14 14 14 14 13 13 14 14 14 14 14 14 14 14 14 14 14 14 14 14 14 14 14 13 14 14 14 14 14 14 14 14 14
12 12 13 13 13 13 13 13 13 13 13 13 13 13 13 13 13 13 13 13 13 13 13 13 14 14 14 14 14 14 14 13 13 13 13 13 13 14 14 14 14 14 14
12 12 12 12 12 12 12 13 13 13 13 13 13 13 13 13 13 13 13 13 13 13 13 13 13 13 13 13 13 13 13 13 13 13 13 13 13 13 13 13 13 13 13
12 12 12 12 12 12 12 12 12 12 12 12 12 12 13 12 12 12 12 12 13 13 13 13 13 13 13 13 13 13 13 13 13 13 13 13 13 13 13 13 13 13 13
11 12 12 12 12 12 12 12 12 12 12 12 12 12 12 12 12 12 12 12 12 12 12 12 12 13 13 13 13 12 12 12 12 12 12 12 12 12 12 13 13 13 13
11 11 11 11 11 11 11 11 11 11 11 11 11 11 12 12 12 12 12 12 12 12 12 12 12 12 12 12 12 12 12 12 12 12 12 12 12 12 12 12 12 12 12
11 11 11 11 11 11 11 11 11 11 11 11 11 11 11 11 11 11 11 11 11 11 12 12 12 12 12 12 12 12 12 12 12 12 11 11 11 11 12 12 12 12 12
10 10 10 11 11 11 11 11 11 11 11 11 11 11 11 11 11 11 11 11 11 11 11 11 11 11 11 11 11 11 11 11 11 11 11 11 11 11 11 11 11 11 11
10 10 10 10 10 10 10 10 10 10 10 10 10 10 10 10 10 10 10 10 10 10 10 10 11 11 11 11 11 11 11 11 11 11 11 11 11 11 11 11 11 11 11
9 10 10 10 10 10 10 10 10 10 10 10 10 10 10 10 10 10 10 10 10 10 10 10 10 10 10 10 10 10 10 10 10 10 10 10 10 10 10 10 10 10 10
9 9 9 9 9 9 9 9 9 9 9 9 9 9 9 9 10 10 9 9 10 10 10 10 9 9 9 10 10 10 10 10 10 10 10 10 10 10 10 10 10 10 10
9 8 9 9 9 9 9 9 9 9 9 9 9 9 9 9 9 9 9 9 9 9 9 9 9 9 9 9 9 9 9 9 9 9 9 9 10 10 10 10 9 9 9
8 8 8 8 8 8 8 8 8 8 9 9 9 9 9 9 9 9 9 9 9 9 9 9 9 9 9 9 9 9 9 9 9 9 9 9 9 9 9 9 9 9 9
8 8 8 8 8 8 8 8 8 8 8 8 8 8 8 8 8 8 8 8 8 8 8 8 8 8 8 8 8 8 8 8 8 8 8 8 8 8 9 9 9 9 8
7 7 7 7 7 7 7 7 7 7 7 7 7 7 8 8 8 7 7 7 7 7 8 8 8 8 8 8 7 7 7 7 7 7 8 8 8 8 8 8 8 8 8
7 7 6 6 6 6 6 6 6 6 6 7 7 7 7 7 7 7 7 7 7 7 7 7 7 7 7 7 7 7 7 7 7 7 7 7 7 7 7 7 7 8 8
6 6 6 6 6 6 6 6 6 6 6 6 6 6 6 6 6 7 6 6 6 6 6 6 6 6 6 6 6 6 5 6 6 6 6 6 6 7 7 7 7 7 7
6 6 5 5 5 5 5 5 5 5 5 5 5 6 6 6 6 6 6 6 6 6 6 6 6 6 6 5 5 5 5 5 5 5 5 6 6 6 6 6 6 6 6
5 5 5 5 4 4 5 5 5 5 5 5 5 5 5 5 5 5 5 5 5 5 5 5 5 5 5 5 5 4 4 4 4 4 4 5 5 5 5 6 6 6 6
4 4 4 4 4 4 4 4 4 4 4 4 4 4 4 4 4 4 4 4 4 4 4 4 4 4 4 4 4 4 4 4 3 3 3 4 4 4 5 5 5 5 5
4 4 4 4 3 3 3 3 3 3 4 3 3 4 4 4 4 4 4 4 4 4 4 4 3 3 3 3 3 3 3 3 3 3 3 3 3 3 4 4 4 5 5
Wind_Speed
5 8 6 7 7 8 8 8 9 9 9 9 10 10 11 11 12 12 12 12 13 13 14 14 14 15 15 14 14 14 14 15 15 16 17 16 16 16 16 16 15 14 16
6 9 7 7 8 8 9 9 9 9 9 9 10 10 10 11 12 12 13 13 13 14 14 14 14 15 15 14 14 14 14 14 15 15 16 16 16 16 16 16 15 14 16
7 9 8 8 8 8 9 9 9 9 9 9 10 10 11 11 11 11 12 12 13 13 14 14 14 15 15 15 15 14 14 14 14 14 15 14 14 16 16 16 15 15 15
6 9 8 8 9 9 9 9 9 9 9 9 9 10 10 10 10 11 12 12 13 13 13 14 14 15 15 15 15 15 14 14 13 13 13 13 13 15 16 15 15 15 15
7 9 9 9 9 9 9 9 8 9 9 9 9 9 10 10 10 10 11 11 12 13 13 13 14 14 14 14 14 14 13 12 12 12 13 14 13 14 15 15 15 14 15
7 9 9 9 9 9 9 9 9 9 9 9 9 9 9 9 9 10 10 11 11 12 12 12 13 13 13 13 13 12 10 10 10 11 13 13 12 13 14 14 14 14 14
6 8 9 8 8 9 9 9 9 9 8 8 9 9 9 9 9 9 9 10 10 11 11 11 12 12 13 13 12 11 9 9 10 11 12 12 12 13 13 14 13 14 14
6 7 8 7 7 8 8 8 8 8 9 9 8 8 8 9 9 9 9 9 10 10 10 10 11 11 12 12 12 10 9 8 9 10 12 12 12 13 13 13 13 13 13
7 6 6 6 5 6 7 8 8 8 8 8 9 8 8 8 9 9 10 8 9 9 9 10 10 10 11 11 10 10 10 9 9 9 10 10 12 13 12 12 12 12 12
6 6 5 5 5 5 5 7 7 7 7 7 8 8 8 8 7 8 9 9 8 8 9 9 9 9 10 10 9 8 8 7 9 10 10 10 11 11 11 11 11 11 11
4 4 5 5 5 5 5 6 6 7 7 7 7 7 7 6 6 6 7 8 8 7 8 8 8 9 8 8 8 7 7 7 9 9 10 10 10 10 10 10 10 10 10
3 2 3 4 4 4 4 5 5 5 5 6 6 5 5 6 6 6 7 7 7 7 7 7 7 7 6 6 6 6 5 7 8 8 8 10 9 9 9 9 9 9 9
3 2 2 3 4 4 4 4 4 4 4 5 5 5 5 5 5 6 6 6 6 6 5 5 5 5 5 4 4 5 6 6 7 7 7 8 8 8 8 8 8 8 8
3 3 2 3 3 4 4 4 4 4 4 4 5 6 5 4 3 4 4 4 4 4 4 4 3 4 5 5 5 5 6 6 6 7 7 7 7 7 7 7 7 7 7
3 3 2 3 3 3 4 3 4 4 4 5 5 5 5 4 3 3 4 4 4 4 4 4 3 4 4 4 4 5 5 6 7 7 6 6 6 6 6 6 6 5 5
3 3 3 2 3 3 3 3 3 4 4 5 5 5 5 4 4 3 3 4 4 4 4 3 3 3 3 4 4 5 5 5 6 6 6 6 5 5 5 5 5 5 5
3 3 3 3 2 3 3 3 3 4 4 4 4 5 5 5 4 4 3 2 3 3 3 3 4 4 3 3 4 4 4 5 5 5 5 5 5 5 5 5 5 4 4
3 3 3 2 2 2 2 3 3 4 4 4 4 4 4 5 4 4 3 2 3 3 3 2 2 2 2 2 2 3 3 4 5 4 4 5 4 4 4 5 5 5 4
3 3 3 2 2 2 2 3 3 4 4 4 4 4 4 4 4 4 3 3 3 3 2 2 2 2 2 2 2 2 3 3 3 4 4 4 4 4 4 4 5 4 4
3 3 3 3 2 2 2 2 3 3 3 4 4 4 4 3 3 3 3 3 3 2 2 2 2 2 2 2 2 2 2 2 2 2 3 3 4 3 4 4 4 3 3
3 2 3 3 2 2 2 2 2 2 1 2 3 4 3 3 2 3 3 3 2 1 1 2 2 2 2 2 2 2 2 1 1 1 2 2 3 3 3 3 3 3 3
2 2 2 2 3 3 2 2 2 2 1 2 2 3 3 3 2 2 2 2 2 1 2 2 2 1 1 1 1 1 1 2 2 1 1 1 1 2 3 3 2 2 2
3 2 2 1 2 2 2 2 2 2 1 1 1 1 2 2 2 1 1 1 1 1 1 1 2 1 1 1 0 1 1 2 2 1 1 0 1 1 1 2 1 1 1
2 2 2 1 1 1 1 2 4 3 2 2 2 2 1 2 2 1 1 1 1 1 1 1 1 1 2 1 1 1 0 1 1 2 2 1 1 1 1 1 1 1 1
3 3 2 2 1 1 1 1 2 2 1 1 1 2 2 1 1 1 1 1 1 1 1 1 1 2 2 2 1 0 1 1 1 1 3 2 2 2 2 3 3 2 2
2 3 3 2 1 1 1 1 1 2 2 2 2 2 2 1 1 1 1 1 1 1 1 1 1 3 2 2 2 1 1 1 2 2 3 3 3 3 3 2 3 3 3
Wind_Direction
92 94 92 86 88 88 83 77 74 72 73 75 75 72 73 75 74 74 74 72 70 70 69 67 64 63 68 69 72 78 82 83 83 83 83 82 84 83 81 80 79 79 80
99 103 98 93 94 91 87 80 76 74 76 78 78 77 78 80 77 75 75 72 72 71 70 69 66 64 67 70 76 80 83 85 83 83 84 80 81 81 80 79 80 85 84
90 102 101 94 97 93 87 82 78 77 79 81 81 82 83 83 80 77 76 73 73 74 73 72 71 68 68 68 76 82 85 86 81 83 85 80 80 81 83 83 84 86 86
88 100 102 96 96 92 89 85 82 80 81 82 83 84 86 84 82 80 78 75 74 75 75 73 73 72 71 70 74 80 82 83 81 82 81 80 80 82 84 84 85 85 86
84 93 96 98 96 92 89 88 87 86 83 84 85 85 87 86 84 81 79 78 76 75 75 74 73 72 72 72 73 78 79 79 77 78 78 77 78 84 85 85 85 86 87
82 88 91 98 96 93 89 88 91 92 89 86 86 87 86 87 86 84 81 80 79 77 76 76 75 74 73 73 73 74 74 70 73 75 78 79 80 85 87 87 86 86 87
77 85 96 93 95 95 91 89 91 92 91 88 88 89 89 88 88 85 84 84 82 80 78 78 77 75 75 74 73 69 65 63 74 73 77 79 84 88 89 87 86 86 85
72 80 97 97 90 91 94 92 92 91 88 85 85 89 92 91 86 82 82 84 85 83 81 80 80 78 76 73 69 63 55 59 72 76 79 81 87 88 89 87 86 86 86
63 62 77 90 89 89 89 91 92 90 88 87 84 81 84 86 86 82 76 77 82 84 84 82 80 80 78 74 68 60 51 55 67 73 84 84 89 89 87 87 86 86 86
64 55 55 76 81 78 82 87 90 89 85 86 85 83 82 79 80 82 77 70 78 85 85 83 80 80 79 74 65 55 48 53 67 70 78 87 93 91 89 88 88 87 87
64 51 49 53 63 73 84 85 87 91 84 82 77 77 83 75 72 79 78 75 68 79 83 80 78 78 78 72 65 55 45 48 65 70 75 89 96 94 92 89 88 87 88
89 63 46 50 52 59 77 85 82 88 86 82 78 70 72 72 74 78 80 76 71 67 74 73 74 76 71 66 62 60 43 52 59 71 76 91 97 97 94 91 89 89 89
128 101 63 51 53 54 56 75 73 76 78 79 73 67 68 71 69 72 72 64 61 60 57 60 60 58 56 58 59 56 51 53 56 69 76 89 95 98 99 98 95 91 89
126 115 90 61 61 60 62 61 70 67 66 64 61 68 63 56 53 60 69 62 57 48 41 45 43 44 51 48 52 57 56 55 55 68 69 76 85 94 102 103 99 95 90
130 117 99 70 64 65 66 64 66 65 69 73 66 62 61 52 43 47 61 66 60 54 41 34 38 36 45 44 51 54 52 57 57 62 65 72 83 88 98 104 103 99 94
137 126 108 81 68 74 69 74 74 68 74 80 70 59 62 57 45 44 53 58 53 55 46 40 43 43 39 42 46 48 48 57 61 64 68 61 75 81 91 100 103 96 92
151 135 128 122 84 85 84 78 74 73 76 73 72 69 61 56 48 47 52 58 49 61 55 51 54 57 49 46 39 36 43 49 53 57 66 61 62 73 78 94 94 96 91
144 137 131 127 112 97 92 87 81 81 82 73 76 73 62 59 54 51 48 49 48 60 55 58 65 69 58 51 39 23 34 41 44 51 65 65 61 68 68 73 86 85 84
143 140 141 134 137 138 120 112 98 89 83 81 81 74 66 58 58 57 49 43 54 51 49 61 72 76 71 54 40 31 26 34 40 47 53 61 61 77 78 70 77 78 80
137 140 148 148 138 141 137 127 112 93 90 87 81 73 75 59 52 62 64 58 56 62 63 65 84 70 81 75 51 34 16 18 37 47 40 50 48 59 79 82 81 76 72
139 137 147 151 147 137 152 156 150 149 132 105 88 84 85 74 50 58 56 65 62 89 107 94 90 93 64 58 55 23 355 17 45 25 47 63 56 47 64 75 84 83 70
133 150 158 160 160 157 167 174 164 153 158 120 94 95 99 99 84 76 58 77 80 88 100 92 94 83 58 74 74 39 337 332 342 341 7 77 60 60 74 59 66 86 86
153 171 177 181 169 163 159 148 133 120 109 113 123 121 88 107 108 100 86 73 98 116 142 134 130 112 160 255 72 121 141 242 305 293 299 354 47 26 73 88 70 52 125
159 152 155 151 129 129 142 161 161 159 163 179 174 175 142 115 115 135 131 113 100 106 147 176 153 160 152 199 282 319 260 170 226 289 286 277 281 267 227 221 218 204 198
141 145 154 137 115 96 112 168 176 173 166 141 138 160 168 137 120 139 143 133 136 154 185 200 197 186 177 187 190 260 289 305 278 237 266 279 282 266 233 208 206 206 203
111 129 130 131 125 116 118 107 177 181 163 154 157 186 186 182 157 121 96 111 151 178 204 219 217 207 208 201 196 189 193 213 242 240 253 269 268 263 258 220 206 206 205
Height
1518 1519 1520 1521 1522 1523 1524 1525 1525 1526 1526 1527 1527 1528 1528 1528 1529 1529 1529 1529 1530 1530 1530 1530 1529 1528 1527 1526 1525 1525 1527 1530 1532 1534 1536 1537 1538 1539 1540 1541 1542 1543 1544
1518 1518 1520 1521 1522 1523 1524 1525 1526 1526 1527 1527 1528 1528 1529 1529 1530 1530 1530 1531 1531 1531 1531 1531 1530 1530 1529 1527 1525 1526 1528 1531 1534 1536 1537 1539 1540 1541 1542 1543 1544 1544 1545
1518 1518 1520 1521 1522 1524 1524 1525 1526 1527 1527 1528 1528 1529 1529 1530 1531 1531 1532 1532 1532 1532 1532 1532 1532 1531 1530 1529 1527 1528 1530 1533 1536 1537 1539 1540 1542 1543 1544 1545 1545 1546 1547
1518 1518 1520 1521 1523 1524 1525 1526 1526 1527 1528 1528 1529 1530 1530 1531 1531 1532 1533 1533 1533 1534 1534 1534 1533 1533 1533 1532 1531 1532 1533 1535 1538 1539 1541 1542 1543 1545 1545 1546 1547 1547 1548
1517 1518 1520 1521 1523 1524 1525 1526 1526 1527 1528 1529 1529 1530 1531 1532 1532 1533 1534 1534 1534 1535 1535 1535 1535 1535 1535 1535 1535 1536 1537 1538 1540 1541 1542 1543 1545 1546 1547 1548 1548 1549 1550
1517 1518 1520 1521 1523 1524 1525 1526 1527 1527 1528 1529 1530 1530 1531 1532 1533 1534 1534 1535 1535 1536 1536 1536 1536 1537 1537 1537 1538 1539 1539 1540 1542 1543 1544 1545 1546 1547 1548 1549 1550 1550 1551
1517 1518 1520 1521 1523 1524 1525 1526 1527 1528 1528 1529 1530 1531 1531 1532 1533 1534 1535 1535 1536 1536 1537 1537 1538 1538 1538 1539 1540 1541 1542 1543 1543 1544 1545 1546 1547 1548 1549 1550 1550 1551 1552
1517 1518 1519 1521 1522 1523 1525 1525 1526 1528 1529 1529 1530 1531 1532 1532 1533 1534 1535 1536 1536 1537 1537 1538 1538 1539 1539 1540 1540 1542 1543 1544 1545 1545 1546 1547 1548 1549 1550 1551 1551 1552 1553
1516 1517 1519 1520 1522 1523 1524 1525 1526 1527 1528 1529 1530 1530 1531 1532 1533 1534 1535 1536 1536 1537 1537 1538 1539 1539 1540 1541 1541 1542 1543 1544 1545 1546 1547 1548 1549 1550 1551 1551 1552 1553 1554
1516 1517 1518 1520 1521 1522 1523 1524 1526 1527 1528 1528 1529 1530 1531 1531 1533 1534 1535 1535 1536 1537 1537 1538 1539 1540 1540 1541 1542 1543 1544 1545 1546 1547 1548 1549 1550 1551 1551 1552 1553 1554 1554
1515 1516 1517 1518 1520 1521 1522 1523 1524 1526 1527 1527 1528 1529 1530 1531 1532 1533 1534 1535 1536 1536 1537 1538 1538 1539 1540 1541 1542 1543 1544 1545 1546 1547 1548 1549 1550 1551 1552 1553 1553 1554 1555
1514 1515 1516 1517 1518 1520 1521 1522 1523 1524 1525 1526 1527 1528 1529 1530 1531 1532 1533 1534 1535 1536 1537 1537 1538 1539 1540 1541 1542 1543 1544 1545 1546 1547 1548 1549 1550 1551 1552 1552 1553 1554 1555
1512 1513 1514 1516 1517 1518 1519 1521 1522 1523 1524 1525 1526 1527 1528 1529 1530 1531 1532 1533 1534 1535 1535 1536 1537 1538 1540 1540 1541 1543 1544 1545 1546 1546 1548 1549 1550 1550 1551 1552 1553 1553 1554
1510 1511 1512 1514 1515 1517 1518 1519 1520 1521 1522 1523 1525 1526 1526 1527 1529 1529 1530 1532 1533 1534 1535 1535 1536 1538 1539 1540 1541 1542 1543 1544 1545 1545 1546 1548 1549 1550 1550 1551 1552 1553 1553
1508 1509 1510 1512 1513 1515 1516 1517 1518 1519 1520 1521 1523 1524 1525 1526 1527 1528 1529 1531 1532 1533 1534 1535 1535 1536 1538 1539 1540 1541 1542 1543 1544 1545 1545 1547 1548 1549 1549 1550 1551 1551 1552
1506 1507 1508 1510 1511 1512 1514 1515 1516 1517 1519 1520 1521 1522 1524 1525 1525 1526 1527 1529 1530 1531 1533 1534 1535 1535 1537 1538 1539 1539 1540 1541 1542 1543 1544 1545 1546 1547 1548 1548 1549 1549 1550
1504 1505 1506 1507 1509 1510 1511 1513 1514 1515 1517 1518 1519 1520 1522 1523 1523 1524 1526 1527 1528 1530 1531 1532 1533 1534 1535 1536 1537 1538 1539 1540 1540 1541 1542 1543 1544 1545 1546 1547 1547 1548 1548
1501 1502 1503 1505 1506 1507 1509 1510 1512 1513 1514 1516 1517 1518 1519 1520 1521 1523 1524 1525 1527 1528 1529 1530 1531 1532 1533 1534 1535 1536 1537 1538 1539 1540 1540 1541 1542 1543 1544 1545 1545 1546 1546
1498 1499 1500 1502 1503 1504 1506 1507 1509 1510 1511 1513 1514 1516 1517 1518 1519 1521 1522 1523 1524 1525 1527 1528 1529 1530 1531 1532 1533 1534 1535 1536 1537 1538 1538 1539 1539 1540 1541 1542 1543 1544 1544
1496 1497 1498 1499 1500 1502 1503 1504 1506 1507 1509 1510 1512 1513 1514 1516 1517 1518 1520 1521 1522 1523 1524 1525 1526 1527 1529 1529 1530 1531 1532 1533 1534 1535 1536 1537 1537 1538 1538 1539 1540 1541 1541
1493 1494 1494 1495 1497 1498 1499 1501 1502 1504 1505 1507 1509 1510 1512 1513 1515 1516 1517 1518 1519 1520 1521 1523 1524 1525 1526 1527 1528 1528 1530 1531 1532 1532 1533 1534 1534 1535 1535 1536 1537 1538 1538
1489 1490 1491 1492 1494 1495 1497 1498 1500 1501 1503 1504 1506 1507 1509 1510 1511 1512 1514 1515 1516 1518 1519 1520 1521 1521 1523 1524 1525 1526 1527 1529 1528 1529 1530 1531 1531 1532 1533 1533 1533 1534 1535
1486 1487 1488 1490 1491 1492 1494 1496 1497 1498 1499 1501 1502 1504 1505 1507 1508 1509 1510 1512 1513 1514 1515 1516 1517 1518 1519 1521 1523 1524 1525 1524 1525 1525 1526 1527 1528 1528 1529 1530 1531 1531 1532
1483 1484 1486 1487 1488 1489 1491 1492 1493 1494 1495 1496 1498 1500 1502 1503 1505 1506 1507 1508 1509 1510 1512 1513 1514 1515 1516 1517 1519 1520 1522 1522 1523 1522 1522 1523 1524 1525 1526 1526 1527 1528 1529
1481 1482 1483 1484 1485 1486 1488 1489 1490 1491 1493 1494 1495 1497 1498 1499 1501 1502 1503 1504 1506 1507 1508 1509 1510 1511 1513 1514 1515 1516 1517 1519 1519 1520 1519 1519 1520 1521 1522 1522 1523 1524 1525
1479 1480 1480 1481 1482 1483 1485 1486 1487 1488 1489 1491 1492 1493 1494 1495 1497 1498 1499 1500 1502 1503 1504 1505 1506 1507 1508 1510 1511 1512 1513 1514 1515 1516 1515 1515 1515 1516 1517 1518 1519 1520 1521